Orbital Elements at Epoch 2459200.5 (2020-Dec-17.0) TDB
Reference: JPL 13 (heliocentric ecliptic J2000)
Element | Value | Uncertainty (1-sigma) | Units |
e | .1981789919409499 | 4.5152e-08 | |
a | 2.358546030872643 | 1.5168e-08 | au |
q | 1.891131756027974 | 1.0665e-07 | au |
i | 4.596358342969969 | 6.4823e-06 | deg |
node | 354.02113072 | 6.2138e-05 | deg |
peri | 104.9921176517284 | 6.5804e-05 | deg |
M | 285.3457099547352 | 2.6245e-05 | deg |
tp | 2459474.857748866228 (2021-Sep-17.35774887) | 9.8532e-05 | TDB |
period | 1323.015590021096 3.62 | 1.2763e-05 3.494e-08 | d yr |
n | .2721056370879649 | 2.6249e-09 | deg/d |
Q | 2.825960305717312 | 1.8174e-08 | au |
|
| | Orbit Determination Parameters
Additional Information
|